Harlan, IA

6:11 PM CST on December 08, 2019 (GMT -0600)
Harlan Municipal

Weather History for KHNR - October, 2019

Change the Weather History Date:

Friday, October 11, 2019

  Actual Average Record
Temperature  
Mean Temperature 34 °F -  
Max Temperature 39 °F 66 °F 87 °F (1960)
Min Temperature 28 °F 42 °F 20 °F (1987)
Degree Days  
Heating Degree Days 32    
Moisture  
Dew Point 26 °F    
Average Humidity 72    
Maximum Humidity 93    
Minimum Humidity 49    
Precipitation  
Precipitation 0.00 in - - ()
Sea Level Pressure  
Sea Level Pressure 30.07 in    
Wind  
Wind Speed 15 mph ()    
Max Wind Speed 26 mph    
Max Gust Speed 37 mph    
Visibility 10.0 miles    
Events Rain    
Averages and records for this station are not official NWS values.
T = Trace of Precipitation, MM = Missing Value Source: Averaged Metar Reports

Daily Weather History Graph

Daily Weather History Graph

Search for Another Location

Airport or City:

Astronomy

Oct. 11, 2019 Rise Set
Actual Time 7:28 AM CDT 6:46 PM CDT
Civil Twilight 7:00 AM CDT 7:14 PM CDT
Nautical Twilight 6:28 AM CDT 7:46 PM CDT
Astronomical Twilight 5:56 AM CDT 8:18 PM CDT
Moon 6:18 PM CDT (10/11) 5:07 AM CDT (10/11)
Length of Visible Light 12h 13m
Length of Day
11h 18m
Waxing Gibbous, 96% of the Moon is Illuminated
Oct 11
Waxing Gibbous
Oct 13
Full
Oct 21
Last Quarter
Oct 27
New
Nov 4
First Quarter

Hourly Weather History & Observations

Time (CDT) Temp. Windchill Dew Point Humidity Pressure Visibility Wind Dir Wind Speed Gust Speed Precip Events Conditions
12:15 AM 37.4 °F 28.2 °F 33.8 °F 87% 29.98 in 10.0 mi NW 16.1 mph 25.3 mph N/A   Overcast
12:35 AM 37.4 °F 26.9 °F 33.8 °F 87% 29.99 in 10.0 mi WNW 20.7 mph - N/A   Overcast
12:55 AM 35.6 °F 25.9 °F 33.8 °F 93% 29.99 in 10.0 mi WNW 16.1 mph 26.5 mph N/A   Overcast
1:15 AM 35.6 °F 25.9 °F 33.8 °F 93% 29.99 in 10.0 mi WNW 16.1 mph 23.0 mph N/A   Overcast
1:35 AM 35.6 °F 27.5 °F 33.8 °F 93% 29.98 in 10.0 mi NW 11.5 mph 19.6 mph N/A   Overcast
1:55 AM 35.6 °F 25.9 °F 33.8 °F 93% 30.00 in 10.0 mi WNW 16.1 mph 23.0 mph N/A   Overcast
2:15 AM 35.6 °F 27.1 °F 33.8 °F 93% 30.00 in 10.0 mi WNW 12.7 mph 21.9 mph N/A   Overcast
2:35 AM 35.6 °F 27.5 °F 33.8 °F 93% 30.00 in 10.0 mi WNW 11.5 mph 18.4 mph N/A   Overcast
2:55 AM 35.6 °F 26.6 °F 33.8 °F 93% 30.01 in 10.0 mi WNW 13.8 mph 19.6 mph N/A Rain Light Rain
3:15 AM 35.6 °F 27.5 °F 32.0 °F 87% 30.02 in 10.0 mi WNW 11.5 mph 20.7 mph N/A   Overcast
3:35 AM 35.6 °F 27.5 °F 32.0 °F 87% 30.02 in 10.0 mi WNW 11.5 mph 17.3 mph N/A   Overcast
3:55 AM 33.8 °F 24.8 °F 32.0 °F 93% 30.02 in 8.0 mi WNW 12.7 mph 24.2 mph N/A Rain Light Rain
4:15 AM 35.6 °F 27.5 °F 32.0 °F 87% 30.03 in 10.0 mi WNW 11.5 mph 17.3 mph N/A   Overcast
4:35 AM 35.6 °F 27.1 °F 30.2 °F 81% 30.04 in 10.0 mi WNW 12.7 mph 19.6 mph N/A   Overcast
4:55 AM 35.6 °F 26.6 °F 30.2 °F 81% 30.03 in 10.0 mi WNW 13.8 mph - N/A   Overcast
5:15 AM 35.6 °F 27.1 °F 30.2 °F 81% 30.04 in 10.0 mi West 12.7 mph 18.4 mph N/A   Overcast
5:35 AM 35.6 °F 25.9 °F 30.2 °F 81% 30.04 in 10.0 mi West 16.1 mph 23.0 mph N/A   Overcast
5:55 AM 35.6 °F 25.9 °F 28.4 °F 75% 30.05 in 10.0 mi WNW 16.1 mph 24.2 mph N/A   Overcast
6:15 AM 35.6 °F 25.5 °F 28.4 °F 75% 30.05 in 10.0 mi WNW 17.3 mph 25.3 mph N/A   Overcast
6:35 AM 35.6 °F 27.1 °F 28.4 °F 75% 30.05 in 10.0 mi WNW 12.7 mph 24.2 mph N/A   Overcast
6:55 AM 35.6 °F 25.9 °F 28.4 °F 75% 30.05 in 10.0 mi WNW 16.1 mph - N/A   Overcast
7:15 AM 35.6 °F 26.2 °F 30.2 °F 81% 30.05 in 10.0 mi West 15.0 mph 20.7 mph N/A   Overcast
7:35 AM 33.8 °F 22.8 °F 26.6 °F 75% 30.06 in 10.0 mi WNW 18.4 mph 28.8 mph N/A   Overcast
7:55 AM 33.8 °F 23.9 °F 26.6 °F 75% 30.06 in 10.0 mi WNW 15.0 mph 27.6 mph N/A   Overcast
8:55 AM 35.6 °F 26.2 °F 26.6 °F 70% 30.08 in 10.0 mi WNW 15.0 mph 25.3 mph N/A   Overcast
9:15 AM 35.6 °F 24.8 °F 26.6 °F 70% 30.09 in 10.0 mi West 19.6 mph 25.3 mph N/A   Overcast
9:35 AM 33.8 °F 22.2 °F 24.8 °F 70% 30.10 in 10.0 mi WNW 20.7 mph 28.8 mph N/A   Overcast
9:55 AM 33.8 °F 21.6 °F 24.8 °F 70% 30.10 in 10.0 mi WNW 23.0 mph - N/A   Overcast
10:15 AM 33.8 °F 24.3 °F 24.8 °F 70% 30.10 in 10.0 mi WNW 13.8 mph 24.2 mph N/A   Overcast
10:35 AM 35.6 °F 24.5 °F 24.8 °F 65% 30.10 in 10.0 mi West 20.7 mph 29.9 mph N/A   Overcast
10:55 AM 35.6 °F 24.2 °F 24.8 °F 65% 30.10 in 10.0 mi West 21.9 mph 32.2 mph N/A   Overcast
11:15 AM 35.6 °F 24.2 °F 24.8 °F 65% 30.10 in 10.0 mi West 21.9 mph 29.9 mph N/A   Overcast
11:35 AM 35.6 °F 24.2 °F 24.8 °F 65% 30.10 in 10.0 mi WNW 21.9 mph 33.4 mph N/A   Overcast
11:55 AM 35.6 °F 24.0 °F 24.8 °F 65% 30.10 in 10.0 mi West 23.0 mph 31.1 mph N/A   Overcast
12:15 PM 37.4 °F 26.6 °F 24.8 °F 60% 30.10 in 10.0 mi West 21.9 mph 29.9 mph N/A   Overcast
12:35 PM 37.4 °F 25.6 °F 24.8 °F 60% 30.10 in 10.0 mi West 26.5 mph 36.8 mph N/A   Overcast
12:55 PM 37.4 °F 25.9 °F 23.0 °F 56% 30.10 in 10.0 mi West 25.3 mph 32.2 mph N/A   Overcast
1:15 PM 39.2 °F 28.5 °F 23.0 °F 52% 30.10 in 10.0 mi West 24.2 mph 33.4 mph N/A   Overcast
1:55 PM 37.4 °F 27.8 °F 24.8 °F 60% 30.09 in 10.0 mi West 17.3 mph 31.1 mph N/A   Overcast
2:15 PM 37.4 °F 26.6 °F 24.8 °F 60% 30.09 in 10.0 mi West 21.9 mph 29.9 mph N/A   Overcast
2:35 PM 37.4 °F 26.4 °F 23.0 °F 56% 30.10 in 10.0 mi West 23.0 mph - N/A   Overcast
2:55 PM 37.4 °F 28.5 °F 23.0 °F 56% 30.10 in 10.0 mi West 15.0 mph 23.0 mph N/A   Overcast
3:15 PM 37.4 °F 27.5 °F 23.0 °F 56% 30.10 in 10.0 mi West 18.4 mph 27.6 mph N/A   Overcast
3:35 PM 37.4 °F 27.5 °F 23.0 °F 56% 30.10 in 10.0 mi West 18.4 mph 32.2 mph N/A   Overcast
3:55 PM 39.2 °F 28.5 °F 21.2 °F 49% 30.10 in 10.0 mi West 24.2 mph 31.1 mph N/A   Overcast
4:15 PM 39.2 °F 28.7 °F 21.2 °F 49% 30.10 in 10.0 mi WNW 23.0 mph 32.2 mph N/A   Overcast
4:35 PM 37.4 °F 27.5 °F 23.0 °F 56% 30.10 in 10.0 mi West 18.4 mph 26.5 mph N/A   Overcast
4:55 PM 37.4 °F 27.5 °F 23.0 °F 56% 30.10 in 10.0 mi West 18.4 mph 28.8 mph N/A   Overcast
5:15 PM 37.4 °F 26.9 °F 23.0 °F 56% 30.10 in 10.0 mi West 20.7 mph - N/A   Overcast
5:35 PM 37.4 °F 26.6 °F 23.0 °F 56% 30.10 in 10.0 mi West 21.9 mph 28.8 mph N/A   Overcast
5:55 PM 37.4 °F 27.8 °F 23.0 °F 56% 30.10 in 10.0 mi West 17.3 mph 25.3 mph N/A   Overcast
6:15 PM 37.4 °F 27.2 °F 23.0 °F 56% 30.10 in 10.0 mi West 19.6 mph - N/A   Overcast
6:35 PM 37.4 °F 28.9 °F 23.0 °F 56% 30.10 in 10.0 mi West 13.8 mph 19.6 mph N/A   Overcast
6:55 PM 37.4 °F 29.3 °F 23.0 °F 56% 30.10 in 10.0 mi West 12.7 mph 24.2 mph N/A   Overcast
7:15 PM 37.4 °F 30.3 °F 23.0 °F 56% 30.11 in 10.0 mi West 10.4 mph 17.3 mph N/A   Overcast
7:35 PM 37.4 °F 30.8 °F 23.0 °F 56% 30.11 in 10.0 mi West 9.2 mph - N/A   Overcast
7:55 PM 35.6 °F 28.6 °F 23.0 °F 60% 30.11 in 10.0 mi West 9.2 mph - N/A   Scattered Clouds
8:15 PM 33.8 °F 27.0 °F 23.0 °F 65% 30.11 in 10.0 mi West 8.1 mph - N/A   Clear
8:35 PM 32.0 °F 26.4 °F 23.0 °F 69% 30.11 in 10.0 mi WSW 5.8 mph - N/A   Clear
8:55 PM 32.0 °F 27.5 °F 24.8 °F 75% 30.11 in 10.0 mi WSW 4.6 mph - N/A   Clear
9:15 PM 30.2 °F 24.3 °F 24.8 °F 80% 30.10 in 10.0 mi SW 5.8 mph - N/A   Clear
9:35 PM 32.0 °F 27.5 °F 24.8 °F 75% 30.11 in 10.0 mi SW 4.6 mph - N/A   Clear
9:55 PM 30.2 °F 25.4 °F 24.8 °F 80% 30.10 in 10.0 mi SW 4.6 mph - N/A   Clear
10:15 PM 30.2 °F 24.3 °F 24.8 °F 80% 30.10 in 10.0 mi SW 5.8 mph - N/A   Clear
10:35 PM 30.2 °F 24.3 °F 24.8 °F 80% 30.10 in 10.0 mi WSW 5.8 mph - N/A   Clear
10:55 PM 28.4 °F 21.2 °F 24.8 °F 86% 30.09 in 10.0 mi WSW 6.9 mph - N/A   Clear
11:15 PM 30.2 °F 22.6 °F 24.8 °F 80% 30.09 in 10.0 mi WSW 8.1 mph - N/A   Clear
11:35 PM 30.2 °F 23.4 °F 24.8 °F 80% 30.08 in 10.0 mi WSW 6.9 mph - N/A   Clear
11:55 PM 28.4 °F 21.2 °F 24.8 °F 86% 30.07 in 10.0 mi SW 6.9 mph - N/A   Clear